Watsonville, CA

11:46 AM PST on February 20, 2018 (GMT -0800)
Watsonville Municipal

Weather History for KWVI - February, 2013

Change the Weather History Date:

Tuesday, February 5, 2013

  Actual Average Record
Temperature  
Mean Temperature 48 °F 51 °F  
Max Temperature 54 °F 62 °F 78 °F (2011)
Min Temperature 41 °F 41 °F 33 °F (2008)
Degree Days  
Heating Degree Days 17    
Month to date heating degree days 73  
Since 1 July heating degree days 1803  
Cooling Degree Days 0    
Month to date cooling degree days 0  
Year to date cooling degree days 0  
Moisture  
Dew Point 44 °F    
Average Humidity 86    
Maximum Humidity 100    
Minimum Humidity 71    
Precipitation  
Precipitation 0.00 in - 1.19 in (1950)
Month to date precipitation 0.01  
Year to date precipitation 0.69  
Since 1 July precipitation 11.63  
Sea Level Pressure  
Sea Level Pressure 30.12 in    
Wind  
Wind Speed 1 mph (NNW)    
Max Wind Speed 8 mph    
Max Gust Speed 14 mph    
Visibility 7 miles    
Events Fog    
T = Trace of Precipitation, MM = Missing Value Source: NWS Daily Summary

Daily Weather History Graph

Daily Weather History Graph

Search for Another Location

Airport or City:

Trip Planner

Search our weather history database for the weather conditions in past years. The results will help you decide how hot, cold, wet, or windy it might be!

Date:

Astronomy

Feb. 05, 2013 Rise Set
Actual Time 7:05 AM PST 5:37 PM PST
Civil Twilight 6:38 AM PST 6:04 PM PST
Nautical Twilight 6:07 AM PST 6:35 PM PST
Astronomical Twilight 5:37 AM PST 7:05 PM PST
Moon 2:50 AM PST (2/5) 1:02 PM PST (2/5)
Length of Visible Light 11h 25m
Length of Day
10h 31m
Waning Crescent, 25% of the Moon is Illuminated
Feb 5
Waning Crescent
Feb 9
New
Feb 17
First Quarter
Feb 25
Full
Mar 4
Last Quarter

Hourly Weather History & Observations

Time (PST) Temp. Windchill Dew Point Humidity Pressure Visibility Wind Dir Wind Speed Gust Speed Precip Events Conditions
12:04 AM 44.6 °F - 44.6 °F 100% 30.11 in 0.5 mi Calm Calm - N/A Fog Fog
12:11 AM 44.6 °F - 44.6 °F 100% 30.11 in 1.5 mi Calm Calm - N/A   Overcast
12:15 AM 44.6 °F 43.1 °F 44.6 °F 100% 30.11 in 3.0 mi NNW 3.5 mph - N/A   Overcast
12:53 AM 46.0 °F - 45.0 °F 96% 30.10 in 6.0 mi Calm Calm - N/A   Overcast
1:53 AM 46.0 °F - 45.0 °F 96% 30.10 in 5.0 mi Calm Calm - N/A   Overcast
2:13 AM 46.4 °F 45.2 °F 44.6 °F 93% 30.10 in 5.0 mi NNE 3.5 mph - N/A   Overcast
2:53 AM 46.9 °F - 45.0 °F 93% 30.09 in 9.0 mi Calm Calm - N/A   Overcast
3:13 AM 48.2 °F - 44.6 °F 87% 30.09 in 8.0 mi Calm Calm - N/A   Overcast
3:53 AM 46.9 °F - 46.0 °F 97% 30.10 in 5.0 mi East 3.5 mph - N/A   Overcast
4:53 AM 46.9 °F - 45.0 °F 93% 30.09 in 3.0 mi Calm Calm - N/A   Overcast
5:11 AM 46.4 °F - 46.4 °F 100% 30.09 in 2.0 mi Calm Calm - N/A   Overcast
5:53 AM 46.9 °F - 45.0 °F 93% 30.08 in 3.0 mi Calm Calm - N/A   Overcast
6:53 AM 46.9 °F - 45.0 °F 93% 30.09 in 7.0 mi Calm Calm - N/A   Overcast
7:31 AM 46.4 °F - 44.6 °F 93% 30.10 in 4.0 mi Calm Calm - N/A   Overcast
7:53 AM 46.9 °F - 45.0 °F 93% 30.12 in 2.0 mi Calm Calm - N/A   Overcast
8:00 AM 46.4 °F - 46.4 °F 100% 30.11 in 1.8 mi Calm Calm - N/A   Overcast
8:03 AM 46.4 °F - 44.6 °F 93% 30.11 in 2.0 mi Calm Calm - N/A   Overcast
8:14 AM 46.4 °F - 44.6 °F 93% 30.12 in 4.0 mi Calm Calm - N/A   Overcast
8:23 AM 46.4 °F - 44.6 °F 93% 30.12 in 5.0 mi Calm Calm - N/A   Overcast
8:32 AM 46.4 °F - 44.6 °F 93% 30.13 in 2.5 mi Calm Calm - N/A   Overcast
8:43 AM 46.4 °F - 44.6 °F 93% 30.13 in 3.0 mi Calm Calm - N/A   Overcast
8:53 AM 46.9 °F - 45.0 °F 93% 30.14 in 5.0 mi Calm Calm - N/A   Overcast
9:23 AM 46.4 °F - 44.6 °F 93% 30.14 in 6.0 mi Calm Calm - N/A   Overcast
9:35 AM 46.4 °F - 44.6 °F 93% 30.14 in 9.0 mi Calm Calm - N/A   Overcast
9:46 AM 48.2 °F - 44.6 °F 87% 30.14 in 10.0 mi Calm Calm - N/A   Overcast
9:53 AM 48.0 °F - 45.0 °F 89% 30.14 in 10.0 mi Calm Calm - N/A   Overcast
10:21 AM 48.2 °F - 46.4 °F 93% 30.14 in 10.0 mi East 3.5 mph - N/A   Overcast
10:49 AM 48.2 °F - 44.6 °F 87% 30.15 in 9.0 mi Calm Calm - N/A   Overcast
10:53 AM 48.0 °F - 45.0 °F 89% 30.15 in 8.0 mi Calm Calm - N/A   Overcast
11:09 AM 48.2 °F - 44.6 °F 87% 30.15 in 10.0 mi Calm Calm - N/A   Overcast
11:53 AM 48.9 °F - 44.1 °F 83% 30.14 in 10.0 mi Calm Calm - N/A   Overcast
12:42 PM 50.0 °F - 44.6 °F 82% 30.12 in 10.0 mi Calm Calm - N/A   Overcast
12:53 PM 50.0 °F - 45.0 °F 83% 30.12 in 10.0 mi Calm Calm - N/A   Overcast
1:53 PM 51.1 °F - 45.0 °F 80% 30.10 in 10.0 mi Calm Calm - N/A   Overcast
2:53 PM 53.1 °F - 45.0 °F 74% 30.10 in 10.0 mi Calm Calm - N/A   Overcast
3:42 PM 53.6 °F - 44.6 °F 72% 30.11 in 10.0 mi Calm Calm - N/A   Scattered Clouds
4:53 PM 50.0 °F - 44.1 °F 80% 30.12 in 10.0 mi SSW 3.5 mph - N/A   Partly Cloudy
5:53 PM 50.0 °F - 44.1 °F 80% 30.12 in 10.0 mi Calm Calm - N/A   Partly Cloudy
6:53 PM 46.9 °F - 43.0 °F 86% 30.13 in 10.0 mi NW 3.5 mph - N/A   Clear
7:53 PM 45.0 °F 43.5 °F 42.1 °F 90% 30.14 in 10.0 mi NW 3.5 mph - N/A   Clear
8:53 PM 44.1 °F 41.5 °F 41.0 °F 89% 30.15 in 10.0 mi WNW 4.6 mph - N/A   Clear
9:53 PM 43.0 °F 40.3 °F 41.0 °F 93% 30.16 in 10.0 mi NW 4.6 mph - N/A   Clear
10:53 PM 42.1 °F 40.2 °F 39.9 °F 92% 30.16 in 10.0 mi WNW 3.5 mph - N/A   Clear
11:53 PM 41.0 °F 39.0 °F 39.0 °F 93% 30.17 in 10.0 mi NW 3.5 mph - N/A   Clear